Skip Page Navigation
NASA JPL Caltech
NASA Logo - Jet Propulsion Laboratory + View the NASA Portal
+ Center for Near-Earth Object Studies
JPL Home Earth Solar System Stars & Galaxies Technology
JPL Solar System Dynamics
BODIES ORBITS EPHEMERIDES TOOLS PHYSICAL DATA DISCOVERY FAQ SITE MAP
JPL Small-Body Database Browser
Search: [ help ]  
59443 (1999 GV30)
Classification: Main-belt Asteroid          SPK-ID: 2059443
Ephemeris | Orbit Diagram | Orbital Elements | Mission Design | Physical Parameters | Discovery Circumstances ]

[ show orbit diagram ]
Orbital Elements at Epoch 2459000.5 (2020-May-31.0) TDB
Reference: JPL 19 (heliocentric ecliptic J2000)
 Element Value Uncertainty (1-sigma)   Units 
e .1444980616045437 4.37e-08  
a 2.682477842738803 2.1132e-08 au
q 2.294864994165908 1.183e-07 au
i 12.81375921360906 4.2312e-06 deg
node 42.2871038693056 2.272e-05 deg
peri 236.1856981428199 4.0353e-05 deg
M 231.5089743903744 4.2846e-05 deg
tp 2459573.260338160875
(2021-Dec-24.76033816)
0.00019616 TDB
period 1604.732476526116
4.39
1.8963e-05
5.192e-08
d
yr
n .2243364581112727 2.6509e-09 deg/d
Q 3.070090691311698 2.4185e-08 au
  Orbit Determination Parameters
   # obs. used (total)      771  
   data-arc span      8558 days (23.43 yr)  
   first obs. used      1996-10-16  
   last obs. used      2020-03-22  
   planetary ephem.      DE431  
   SB-pert. ephem.      SB431-N16  
   condition code      0  
   norm. resid. RMS      .57567  
   source      ORB  
   producer      Otto Matic  
   solution date      2020-May-20 11:45:50  

Additional Information
 Earth MOID = 1.3064 au 
 Jupiter MOID = 2.08934 au 
 T_jup = 3.325 
[ hide covariance matrix ]
Orbital Elements at Epoch 2457413.5 (2016-Jan-26.0) TDB
Reference: JPL 19 (heliocentric ecliptic J2000)
 Element Value Uncertainty (1-sigma)   Units 
e .1453462376003711 4.3694e-08  
q 2.292877854902742 1.1852e-07 au
tp 2457966.574645530637
(2017-Aug-01.07464553)
0.00018109 TDB
node 42.34494945977408 2.2743e-05 deg
peri 235.7924439446045 4.0222e-05 deg
i 12.8078522135013 4.2288e-06 deg
  Orbit Determination Parameters
   # obs. used (total)      771  
   data-arc span      8558 days (23.43 yr)  
   first obs. used      1996-10-16  
   last obs. used      2020-03-22  
   planetary ephem.      DE431  
   SB-pert. ephem.      SB431-N16  
   condition code      0  
   norm. resid. RMS      .57567  
   source      ORB  
   producer      Otto Matic  
   solution date      2020-May-20 11:45:50  

Additional Information
 Jupiter MOID = 2.08934 au 
 T_jup = 3.325 
Orbit Covariance (6×6)
  e q tp node peri i
e 1.909133757454601E-15 -5.117743434253932E-15 -8.072616137725955E-14 -2.800986932503516E-15 2.314223077538467E-14 5.560793695233408E-15
q -5.117743434253932E-15 1.404676378792228E-14 2.617848254980491E-12 1.076072907577326E-14 3.639998229296805E-13 -1.201921454011121E-14
tp -8.072616137725955E-14 2.617848254980491E-12 3.279213466706551E-8 3.077677329343732E-11 6.040525023346525E-9 3.915538723839839E-11
node -2.800986932503516E-15 1.076072907577326E-14 3.077677329343732E-11 5.172615448994957E-10 -4.988051899923528E-10 -1.749002257937659E-12
peri 2.314223077538467E-14 3.639998229296805E-13 6.040525023346525E-9 -4.988051899923528E-10 1.617775104924891E-9 9.011010109595527E-12
i 5.560793695233408E-15 -1.201921454011121E-14 3.915538723839839E-11 -1.749002257937659E-12 9.011010109595527E-12 1.788291862704703E-11

Ephemeris | Orbit Diagram | Orbital Elements | Mission Design | Physical Parameters | Discovery Circumstances ]

Physical Parameter Table
Parameter Symbol Value Units Sigma Reference Notes
absolute magnitude H 15.0   n/a MPO502546  

59443 (1999 GV30)          Discovered 1999-Apr-07 by LINEAR at Socorro
Reference: 20030614/Numbers.arcLast Updated: 2004-04-19

Alternate Designations
 1999 GV30 = 2000 SN3 
Ephemeris | Orbit Diagram | Orbital Elements | Mission Design | Physical Parameters | Discovery Circumstances ]
ABOUT SSD CREDITS/AWARDS PRIVACY/COPYRIGHT GLOSSARY LINKS
FirstGov 2020-Aug-09 09:06 UT
(server date/time)  
NASA Home Page
Site Manager:   Ryan S. Park
Webmaster  Alan B. Chamberlin